最老页面

跳转至: 导航搜索

下面显示区间#1至#5050条结果。

查看(前50个 | 后50个)(20 | 50 | 100 | 250 | 500

  1. 各种控制板的介绍‏‎(2015年3月17日 (二) 15:33)
  2. 如何选择合适的气体传感器‏‎(2015年3月17日 (二) 15:34)
  3. 如何选择合适的线材‏‎(2015年3月17日 (二) 15:35)
  4. Library的使用与编写‏‎(2015年3月17日 (二) 15:36)
  5. 怎么上传程序到Arduino主控板‏‎(2015年3月17日 (二) 15:37)
  6. 产品的I2C地址汇总‏‎(2015年3月17日 (二) 15:37)
  7. 外部编辑器的使用‏‎(2015年3月17日 (二) 15:38)
  8. 消失的Main函数‏‎(2015年3月17日 (二) 15:38)
  9. 8-Channel-Level-Shifter 8通道逻辑电平转换‏‎(2015年3月17日 (二) 16:03)
  10. Puzzle - PIR Motion Sensor 运动探测传感器‏‎(2015年3月17日 (二) 16:32)
  11. Puzzle - Gas Sensor(MQ4) 天然气甲烷传感器‏‎(2015年3月17日 (二) 16:38)
  12. Puzzle - Starter Kit 初学者套件‏‎(2015年3月17日 (二) 16:54)
  13. Puzzle - Serial RF Pro 串行射频‏‎(2015年3月17日 (二) 17:00)
  14. Puzzle - Switch(P) 开关‏‎(2015年3月17日 (二) 17:04)
  15. Erduino Due R3开发板‏‎(2015年3月17日 (二) 17:18)
  16. Eduino Mega 开发板‏‎(2015年3月17日 (二) 17:19)
  17. Eduino Lite 开发板‏‎(2015年3月17日 (二) 17:20)
  18. Eduino Yún 云‏‎(2015年3月17日 (二) 17:20)
  19. HMC5883 5883电子指南针/罗盘‏‎(2015年3月18日 (三) 14:27)
  20. CP2102 USB转TTL小板‏‎(2015年3月18日 (三) 16:50)
  21. Breadboard Power Supply Stick 5V/3.3V 面包板电源小板 5V/3.3V‏‎(2015年3月18日 (三) 17:36)
  22. Puzzle - Test Sensor 维基测试‏‎(2015年3月28日 (六) 12:00)
  23. Sjhj‏‎(2015年3月28日 (六) 12:08)
  24. Eduino之入门篇‏‎(2015年4月1日 (三) 14:01)
  25. Arduino常见报错‏‎(2015年5月4日 (一) 21:57)
  26. 正确使用Arduino丰富的库程序‏‎(2015年5月4日 (一) 22:00)
  27. Sketchbook的使用‏‎(2015年5月4日 (一) 22:04)
  28. Puzzle - Touch Sensor 触控开关‏‎(2015年5月5日 (二) 11:57)
  29. Puzzle - Water Sensor 水传感器‏‎(2015年5月5日 (二) 14:58)
  30. Puzzle - Vibrator 震动器‏‎(2015年5月5日 (二) 15:41)
  31. Puzzle - Thumb Joystick 模拟摇杆‏‎(2015年5月5日 (二) 17:07)
  32. Puzzle - Temperature Sensor 温度传感器‏‎(2015年5月5日 (二) 18:15)
  33. Arduino之入门篇‏‎(2015年5月5日 (二) 21:44)
  34. Puzzle - Temperature and Humidity Sensor 温湿度传感器‏‎(2015年5月6日 (三) 08:32)
  35. Puzzle - SPDT Relay(30A)单刀双掷继电器‏‎(2015年5月6日 (三) 09:29)
  36. Puzzle - Sound Sensor 声音传感器‏‎(2015年5月6日 (三) 10:09)
  37. Puzzle - Slide Potentiometer 滑动电位计‏‎(2015年5月6日 (三) 10:29)
  38. 1A 双路电机驱动小板 TB6612FNG‏‎(2015年5月6日 (三) 14:40)
  39. 4-Channel-Level-Shifter 4通道逻辑电平转换‏‎(2015年5月6日 (三) 14:42)
  40. ADXL 335 模拟量输出倾角传感器加速度模块‏‎(2015年5月6日 (三) 14:52)
  41. ADXL 345 数字式倾角传感器加速度模块‏‎(2015年5月6日 (三) 14:53)
  42. IOIO for Android Google IO PIC单片机 安卓手机控制器‏‎(2015年5月7日 (四) 14:55)
  43. PN532 NFC/RFID NFC/RFID开发板‏‎(2015年5月7日 (四) 15:08)
  44. CC3000 WiFi Breakout模块/小板‏‎(2015年5月7日 (四) 15:22)
  45. Puzzle - Screw Terminal 螺丝接线端‏‎(2015年5月7日 (四) 15:27)
  46. MPU6050 6050 6轴加速度陀螺仪‏‎(2015年5月7日 (四) 15:29)
  47. OLED Display 128*64 OLED显示屏‏‎(2015年5月7日 (四) 15:30)
  48. PCB ruler PCB尺子‏‎(2015年5月7日 (四) 15:40)
  49. RFBee 射频Bee‏‎(2015年5月7日 (四) 15:45)
  50. Puzzle - Rotary Angle Sensor 旋转角度传感器‏‎(2015年5月7日 (四) 15:54)

查看(前50个 | 后50个)(20 | 50 | 100 | 250 | 500